Weather History for KTSP - August, 2012

Change the Weather History Date:

Friday, August 31, 2012

  Actual Average Record
Temperature  
Mean Temperature 70 °F -  
Max Temperature 87 °F 83 °F 87 °F (2012)
Min Temperature 53 °F 53 °F 46 °F (2011)
Cooling Degree Days 5    
Growing Degree Days 20 (Base 50)    
Moisture  
Dew Point 33 °F    
Average Humidity 27    
Maximum Humidity 48    
Minimum Humidity 11    
Precipitation  
Precipitation 0.00 in - - ()
Sea Level Pressure  
Sea Level Pressure 30.02 in    
Wind  
Wind Speed 5 mph (NW)    
Max Wind Speed 17 mph    
Max Gust Speed 23 mph    
Visibility 10 miles    
Events      
Averages and records for this station are not official NWS values.
T = Trace of Precipitation, MM = Missing Value Source: NWS Daily Summary

Daily Weather History Graph

Daily Weather History Graph

Search for Another Location

Airport or City:

Trip Planner

Search our weather history database for the weather conditions in past years. The results will help you decide how hot, cold, wet, or windy it might be!

Date:

Astronomy

Aug. 31, 2012 Rise Set
Actual Time 6:26 AM PDT 7:21 PM PDT
Civil Twilight 6:00 AM PDT 7:46 PM PDT
Nautical Twilight 5:29 AM PDT 8:17 PM PDT
Astronomical Twilight 4:57 AM PDT 8:49 PM PDT
Moon 7:13 PM PDT (8/31) 6:33 AM PDT (8/31)
Length of Visible Light 13h 46m
Length of Day
12h 55m
Full, 100% of the Moon is Illuminated
Aug 31
Full
Sep 8
Last Quarter
Sep 15
New
Sep 22
First Quarter
Sep 29
Full

Hourly Weather History & Observations

Time (PDT) Temp. Dew Point Humidity Pressure Visibility Wind Dir Wind Speed Gust Speed Precip Events Conditions
12:15 AM 66.2 °F 32.0 °F 28% 30.01 in 10.0 mi NNE 3.5 mph - N/A   Clear
12:35 AM 64.4 °F 30.2 °F 28% 30.01 in 10.0 mi NW 3.5 mph - N/A   Clear
1:15 AM 64.4 °F 26.6 °F 24% 30.01 in 10.0 mi West 4.6 mph - N/A   Clear
1:35 AM 66.2 °F 26.6 °F 23% 30.00 in 10.0 mi North 3.5 mph - N/A   Clear
1:55 AM 66.2 °F 26.6 °F 23% 30.00 in 10.0 mi Calm Calm - N/A   Clear
2:15 AM 66.2 °F 32.0 °F 28% 30.00 in 10.0 mi NW 3.5 mph - N/A   Clear
2:35 AM 64.4 °F 26.6 °F 24% 30.00 in 10.0 mi NNE 3.5 mph - N/A   Clear
2:55 AM 64.4 °F 28.4 °F 26% 30.00 in 10.0 mi Calm Calm - N/A   Partly Cloudy
3:15 AM 62.6 °F 26.6 °F 26% 30.00 in 10.0 mi NE 3.5 mph - N/A   Mostly Cloudy
3:35 AM 59.0 °F 35.6 °F 42% 30.00 in 10.0 mi Calm Calm - N/A   Scattered Clouds
3:55 AM 59.0 °F 37.4 °F 45% 30.00 in 10.0 mi ESE 4.6 mph - N/A   Clear
4:15 AM 59.0 °F 35.6 °F 42% 30.00 in 10.0 mi Calm Calm - N/A   Clear
4:35 AM 59.0 °F 32.0 °F 36% 30.00 in 10.0 mi Calm Calm - N/A   Clear
4:55 AM 57.2 °F 37.4 °F 48% 30.00 in 10.0 mi Calm Calm - N/A   Clear
5:15 AM 57.2 °F 35.6 °F 44% 30.00 in 10.0 mi Calm Calm - N/A   Clear
5:35 AM 57.2 °F 33.8 °F 41% 30.01 in 10.0 mi Calm Calm - N/A   Clear
5:55 AM 55.4 °F 33.8 °F 44% 30.01 in 10.0 mi SE 3.5 mph - N/A   Clear
6:15 AM 55.4 °F 33.8 °F 44% 30.01 in 10.0 mi ESE 3.5 mph - N/A   Clear
6:35 AM 53.6 °F 32.0 °F 44% 30.02 in 10.0 mi Calm Calm - N/A   Clear
6:55 AM 55.4 °F 32.0 °F 41% 30.02 in 8.0 mi ESE 4.6 mph - N/A   Clear
7:15 AM 57.2 °F 33.8 °F 41% 30.02 in 9.0 mi SE 4.6 mph - N/A   Clear
7:35 AM 62.6 °F 32.0 °F 32% 30.02 in 10.0 mi Calm Calm - N/A   Clear
7:55 AM 62.6 °F 32.0 °F 32% 30.03 in 9.0 mi Calm Calm - N/A   Scattered Clouds
8:15 AM 66.2 °F 32.0 °F 28% 30.03 in 9.0 mi Calm Calm - N/A   Mostly Cloudy
8:35 AM 71.6 °F 28.4 °F 20% 30.03 in 10.0 mi Calm Calm - N/A   Overcast
8:55 AM 75.2 °F 28.4 °F 18% 30.03 in 10.0 mi SW 3.5 mph - N/A   Mostly Cloudy
9:15 AM 73.4 °F 28.4 °F 19% 30.03 in 10.0 mi SW 3.5 mph - N/A   Mostly Cloudy
9:35 AM 75.2 °F 26.6 °F 17% 30.03 in 10.0 mi Calm Calm - N/A   Mostly Cloudy
9:55 AM 78.8 °F 26.6 °F 15% 30.03 in 10.0 mi WNW 5.8 mph - N/A   Mostly Cloudy
10:15 AM 78.8 °F 28.4 °F 16% 30.04 in 10.0 mi West 4.6 mph - N/A   Mostly Cloudy
10:35 AM 80.6 °F 28.4 °F 15% 30.03 in 9.0 mi NNW 3.5 mph - N/A   Scattered Clouds
10:55 AM 80.6 °F 32.0 °F 17% 30.03 in 9.0 mi Calm Calm - N/A   Partly Cloudy
11:15 AM 84.2 °F 32.0 °F 15% 30.03 in 10.0 mi North 4.6 mph - N/A   Partly Cloudy
11:35 AM 86.0 °F 28.4 °F 12% 30.03 in 9.0 mi NW 6.9 mph - N/A   Clear
11:55 AM 86.0 °F 24.8 °F 11% 30.02 in 10.0 mi WNW 10.4 mph - N/A   Clear
12:15 PM 86.0 °F 26.6 °F 12% 30.02 in 10.0 mi NW 11.5 mph 20.7 mph N/A   Clear
12:35 PM 87.8 °F 26.6 °F 11% 30.02 in 10.0 mi NW 15.0 mph - N/A   Clear
12:55 PM 86.0 °F 30.2 °F 13% 30.02 in 10.0 mi NW 16.1 mph 20.7 mph N/A   Partly Cloudy
1:15 PM 84.2 °F 32.0 °F 15% 30.02 in 10.0 mi NW 15.0 mph 23.0 mph N/A   Scattered Clouds
1:55 PM 84.2 °F 32.0 °F 15% 30.02 in 9.0 mi NW 17.3 mph - N/A   Scattered Clouds
2:15 PM 84.2 °F 32.0 °F 15% 30.02 in 10.0 mi NW 16.1 mph - N/A   Partly Cloudy
2:35 PM 82.4 °F 32.0 °F 16% 30.02 in 10.0 mi NW 15.0 mph 20.7 mph N/A   Clear
2:55 PM 82.4 °F 32.0 °F 16% 30.01 in 10.0 mi NW 17.3 mph 20.7 mph N/A   Clear
3:15 PM 82.4 °F 32.0 °F 16% 30.01 in 10.0 mi NW 15.0 mph - N/A   Clear
3:35 PM 82.4 °F 33.8 °F 17% 30.01 in 10.0 mi NW 15.0 mph 20.7 mph N/A   Clear
3:55 PM 82.4 °F 35.6 °F 19% 30.01 in 10.0 mi NW 12.7 mph 20.7 mph N/A   Clear
4:15 PM 82.4 °F 35.6 °F 19% 30.01 in 10.0 mi NW 13.8 mph 21.9 mph N/A   Clear
4:35 PM 80.6 °F 37.4 °F 21% 30.01 in 9.0 mi NW 16.1 mph 20.7 mph N/A   Clear
4:55 PM 78.8 °F 37.4 °F 23% 30.01 in 10.0 mi NW 13.8 mph 21.9 mph N/A   Clear
5:15 PM 78.8 °F 37.4 °F 23% 30.01 in 10.0 mi NW 13.8 mph 20.7 mph N/A   Clear
5:35 PM 78.8 °F 37.4 °F 23% 30.01 in 9.0 mi NW 16.1 mph 20.7 mph N/A   Clear
5:55 PM 77.0 °F 37.4 °F 24% 30.01 in 9.0 mi NW 13.8 mph 19.6 mph N/A   Clear
6:15 PM 75.2 °F 37.4 °F 25% 30.01 in 9.0 mi NW 13.8 mph 18.4 mph N/A   Clear
6:35 PM 75.2 °F 35.6 °F 24% 30.01 in 10.0 mi NW 13.8 mph - N/A   Clear
6:55 PM 73.4 °F 35.6 °F 25% 30.01 in 10.0 mi NW 11.5 mph - N/A   Clear
7:15 PM 71.6 °F 35.6 °F 27% 30.02 in 10.0 mi NW 10.4 mph - N/A   Clear
7:35 PM 71.6 °F 35.6 °F 27% 30.02 in 10.0 mi WNW 9.2 mph - N/A   Clear
7:55 PM 69.8 °F 35.6 °F 28% 30.03 in 10.0 mi WNW 8.1 mph - N/A   Clear
8:15 PM 68.0 °F 35.6 °F 30% 30.04 in 10.0 mi West 9.2 mph - N/A   Clear
8:35 PM 68.0 °F 35.6 °F 30% 30.04 in 10.0 mi West 11.5 mph - N/A   Clear
8:55 PM 66.2 °F 35.6 °F 32% 30.05 in 10.0 mi West 6.9 mph - N/A   Clear
9:15 PM 66.2 °F 35.6 °F 32% 30.06 in 10.0 mi West 6.9 mph - N/A   Clear
9:35 PM 64.4 °F 35.6 °F 34% 30.06 in 9.0 mi West 6.9 mph - N/A   Clear
9:55 PM 64.4 °F 35.6 °F 34% 30.06 in 10.0 mi WNW 9.2 mph - N/A   Clear
10:15 PM 64.4 °F 35.6 °F 34% 30.06 in 10.0 mi West 8.1 mph - N/A   Clear
10:35 PM 62.6 °F 35.6 °F 37% 30.06 in 10.0 mi West 8.1 mph - N/A   Clear
10:55 PM 62.6 °F 35.6 °F 37% 30.06 in 10.0 mi West 8.1 mph - N/A   Clear
11:15 PM 62.6 °F 35.6 °F 37% 30.06 in 10.0 mi West 8.1 mph - N/A   Clear
11:35 PM 60.8 °F 35.6 °F 39% 30.06 in 10.0 mi NW 3.5 mph - N/A   Clear
11:55 PM 59.0 °F 33.8 °F 39% 30.06 in 10.0 mi North 3.5 mph - N/A   Clear